RH
16 16 15 13 10 9 9 9 10 12 11 10 10 10 11 11 11 11 10 11 10 9 9 9 9 8 8 7 7 7 6 7 8 8 8 7 7 8 8 6 6 7 6 5 6
16 16 15 13 10 10 10 11 12 12 11 10 10 10 11 11 11 12 12 13 12 11 10 10 10 10 10 9 8 8 7 7 7 8 9 9 8 8 9 10 10 7 7 8 6
16 16 14 13 14 10 10 10 12 12 10 10 10 10 11 11 12 14 14 13 13 13 13 14 13 12 11 10 10 9 9 8 7 7 9 10 10 9 9 10 11 13 8 9 11
17 15 14 14 17 13 11 12 12 12 10 9 9 10 11 11 11 12 11 9 8 8 8 9 12 14 16 15 11 11 11 10 8 8 7 9 11 11 12 14 12 10 13 8 7
19 18 16 17 19 14 13 14 13 12 10 9 9 9 9 9 9 8 8 8 8 8 8 7 8 8 9 14 17 14 12 12 12 11 9 8 10 11 13 14 18 18 14 10 10
24 20 19 21 17 16 15 13 12 10 9 9 9 9 9 9 9 8 8 8 9 9 9 9 9 9 9 10 14 17 18 15 15 14 13 11 10 10 12 14 17 20 23 20 16
24 24 21 19 18 16 14 12 10 10 9 10 10 10 9 8 9 9 10 10 11 11 12 11 11 10 11 11 11 13 18 19 19 20 20 17 14 10 11 13 15 18 23 25 24
22 21 20 19 19 18 17 16 13 12 11 11 11 10 10 11 11 12 14 15 15 14 14 13 13 12 13 13 13 13 15 18 20 20 22 22 23 21 13 13 14 17 20 22 27
27 24 22 22 22 22 22 20 18 14 14 14 13 12 12 14 16 18 20 21 20 18 16 15 14 12 14 14 14 16 17 19 21 25 24 26 26 26 28 25 20 18 22 25 27
36 32 29 28 27 26 24 23 19 18 18 19 20 21 25 25 24 26 25 26 26 22 17 15 14 14 15 14 14 17 21 23 22 24 28 29 31 29 32 34 32 29 30 31 31
43 42 40 37 34 32 30 29 29 28 30 29 30 30 30 30 29 28 28 30 26 22 18 17 15 16 15 14 17 18 20 20 25 26 28 31 34 36 37 36 35 34 32 31 33
40 39 41 43 44 43 41 40 38 37 37 38 37 36 35 32 30 30 30 29 24 22 18 17 18 17 16 18 19 20 22 25 27 31 29 36 42 44 42 40 33 35 34 33 35
44 44 42 42 43 42 43 43 42 41 39 40 37 34 31 29 30 29 26 23 24 21 19 18 18 17 20 20 22 24 25 26 24 26 36 38 44 51 48 44 39 37 40 41 41
44 44 43 43 42 43 43 41 40 37 34 33 31 29 26 25 22 24 21 21 20 20 18 18 20 20 20 21 21 22 25 26 28 30 33 43 45 54 52 50 48 44 44 45 44
33 32 33 34 35 35 35 35 35 35 30 28 24 21 19 19 18 20 22 18 19 18 17 18 20 20 20 21 23 25 28 28 32 36 33 50 56 53 52 48 46 44 48 52 47
31 28 24 22 21 21 21 20 21 22 20 19 17 18 17 17 16 15 17 17 18 17 17 16 18 20 21 25 28 32 32 39 34 43 41 50 47 44 55 58 56 55 46 49 55
38 37 34 29 24 20 18 18 19 20 18 17 17 15 14 15 15 15 15 16 17 15 15 13 16 20 24 28 33 41 50 51 44 52 56 63 55 62 76 71 66 70 67 53 52
31 26 22 20 20 20 20 19 19 18 16 15 14 14 14 14 14 14 13 14 14 17 15 13 13 16 22 32 39 44 57 76 72 67 62 67 64 66 74 74 72 69 62 60 58
28 27 25 23 20 18 17 16 16 15 14 14 14 13 13 14 13 14 14 16 17 20 21 21 17 18 20 32 48 56 64 83 85 81 77 63 66 70 64 78 78 70 68 62 64
24 22 22 20 18 17 16 15 15 14 13 13 12 12 12 12 11 13 12 16 22 27 28 25 23 21 24 29 44 67 85 90 98 93 73 67 77 85 98 86 84 83 76 59 66
22 20 19 18 17 16 16 14 13 12 12 13 13 12 13 14 15 24 27 34 37 45 44 42 37 33 31 40 47 63 83 100 100 97 96 80 74 98 98 100 94 87 69 74 76
19 19 19 18 18 17 16 15 14 13 12 11 11 11 13 18 22 27 38 49 60 64 61 55 53 48 48 49 59 67 79 91 91 94 90 92 61 94 100 98 95 77 82 92 82
18 18 18 18 18 18 16 15 14 13 12 11 11 10 11 15 24 32 49 50 64 67 70 75 70 70 65 69 85 87 100 100 99 98 91 100 76 100 99 96 88 98 100 96 87
21 21 20 20 20 20 19 18 17 16 14 12 11 11 14 30 51 54 76 74 66 74 83 80 68 76 77 94 100 84 88 99 100 97 95 91 87 100 97 93 92 100 99 99 92
16 18 20 20 20 23 21 20 15 13 14 18 22 28 45 55 70 80 84 90 82 81 86 94 77 78 75 85 92 79 82 98 95 88 94 74 93 96 84 85 100 100 100 100 92
26 25 23 21 20 34 49 55 57 56 52 50 49 50 56 79 96 83 93 100 89 88 91 87 78 79 63 81 93 67 82 86 94 98 82 82 97 96 98 86 76 99 100 79 83
81 79 78 60 80 81 88 88 92 94 81 80 76 81 89 87 80 82 84 82 94 93 98 95 97 99 66 97 90 60 72 77 77 86 91 94 99 97 62 77 100 100 100 96 89
Wind_Speed
12 11 10 10 10 11 11 11 10 9 8 8 8 8 8 7 6 5 7 6 5 3 4 5 5 5 5 5 7 7 8 8 10 11 12 12 11 12 14 12 11 13 15 15 16
10 9 9 10 10 11 10 9 8 7 6 7 6 6 6 6 6 5 5 5 4 5 4 4 4 5 6 6 7 7 8 8 8 9 10 10 7 8 11 13 15 10 11 11 11
8 9 10 10 10 9 8 7 6 5 5 4 5 5 5 4 4 3 3 5 6 6 7 7 8 8 9 9 9 9 9 10 10 9 9 10 10 8 8 7 9 12 7 7 12
10 11 11 10 9 8 7 6 5 4 4 3 3 3 2 1 0 2 3 5 6 7 8 8 10 11 11 10 11 11 11 12 13 13 12 11 12 12 10 11 10 10 11 10 10
11 11 11 9 7 7 7 5 5 4 3 3 3 3 4 4 4 5 6 7 9 10 11 12 13 13 13 12 12 13 13 14 14 15 16 15 14 16 15 14 13 12 14 14 14
10 10 10 9 9 8 7 5 4 3 3 4 5 5 5 7 8 8 8 10 12 13 14 15 16 16 16 15 14 15 15 16 17 17 19 19 18 19 20 18 16 16 16 16 18
11 10 10 10 9 8 6 4 2 3 4 6 7 7 7 8 9 10 11 13 15 16 17 18 18 18 18 18 17 17 17 18 20 19 20 21 22 21 23 25 23 21 21 20 20
10 10 10 9 7 5 3 1 3 5 7 8 8 9 9 11 12 13 15 16 17 18 18 19 18 18 19 19 20 20 20 22 20 23 22 22 26 19 25 29 29 26 27 28 26
6 6 5 4 3 2 2 3 5 6 8 9 10 10 11 13 14 15 16 17 18 19 19 19 20 20 20 22 21 20 23 25 26 24 28 27 28 28 24 30 32 30 30 31 31
3 3 4 4 5 5 6 6 7 8 10 11 13 13 13 15 17 19 19 20 21 20 20 20 20 20 22 23 24 26 26 27 29 29 27 30 28 30 32 30 32 33 31 31 32
6 6 7 8 8 9 10 10 11 12 14 15 16 17 18 19 21 22 22 22 23 22 20 21 21 22 24 24 26 27 29 30 31 33 32 33 30 30 35 34 32 34 32 31 32
9 10 10 11 12 13 14 15 15 16 17 18 20 21 21 22 23 24 23 23 23 23 23 24 24 25 26 26 27 28 29 32 33 33 35 34 32 30 32 34 33 32 31 34 34
12 12 13 14 14 15 16 17 18 19 20 20 21 21 22 22 23 22 23 24 23 25 26 26 28 28 28 29 29 29 31 34 36 37 38 38 36 30 26 31 34 33 36 35 37
12 13 14 15 17 17 18 19 20 22 22 20 21 20 21 20 22 24 25 24 27 27 29 29 29 30 30 31 31 31 34 36 38 40 41 40 41 32 32 26 30 35 35 36 39
15 15 16 17 19 19 20 21 21 22 23 22 20 21 22 23 24 25 25 28 28 29 31 31 32 32 32 31 33 35 36 39 41 43 43 41 41 34 32 32 34 36 38 39 43
18 18 19 20 21 22 23 24 24 25 25 24 23 22 23 24 25 27 28 29 30 31 32 33 34 34 33 33 35 37 38 40 42 45 45 45 41 34 37 38 40 41 44 43 43
24 24 24 25 26 26 25 25 25 25 26 26 25 25 25 26 27 29 30 31 33 35 34 36 34 35 36 36 38 39 41 44 45 47 46 47 47 41 45 39 38 44 44 47 44
28 28 27 27 27 26 26 26 27 26 25 27 28 29 29 30 31 32 33 34 34 37 40 42 43 41 39 37 39 41 42 42 47 48 48 47 46 46 46 42 42 45 49 50 42
30 29 29 29 29 28 28 28 28 30 30 31 32 33 33 33 34 35 35 36 37 39 41 44 45 45 45 44 43 43 43 44 48 48 48 48 46 47 50 50 46 51 56 52 42
33 32 32 33 33 33 33 33 33 35 36 36 37 39 37 38 38 38 41 42 41 40 43 46 47 46 46 46 46 47 46 46 48 50 50 48 47 51 51 47 47 56 56 46 43
37 37 36 37 37 38 39 39 38 38 40 41 42 43 42 43 43 43 46 47 48 46 47 48 49 49 48 46 48 48 48 48 50 50 50 48 48 44 46 49 55 58 56 49 45
42 41 41 42 42 43 44 44 43 44 44 46 46 46 47 46 47 48 47 48 49 50 51 50 52 53 52 51 51 50 51 54 53 49 51 49 48 47 47 52 55 56 52 48 49
48 47 46 47 47 47 49 49 47 48 47 49 51 51 51 49 51 51 52 53 51 52 53 52 55 55 52 51 51 51 52 52 53 53 55 52 54 54 49 50 55 54 51 51 53
53 52 51 50 51 52 52 53 54 52 52 53 54 55 54 53 54 57 58 60 59 51 46 46 47 48 48 47 48 51 53 51 52 57 55 54 43 43 49 53 52 47 50 53 55
58 58 56 55 55 54 54 54 55 56 56 56 56 57 58 60 62 63 62 57 56 53 49 48 48 48 48 46 46 48 51 47 47 46 49 47 49 46 57 53 49 53 55 55 57
59 60 60 59 58 59 59 58 59 60 62 61 63 62 62 62 61 60 55 54 55 55 54 52 52 49 48 47 46 50 48 49 51 49 53 52 48 51 52 54 57 58 56 58 62
59 59 63 65 62 64 63 62 64 65 66 63 60 59 53 49 49 47 49 49 51 52 50 51 50 49 51 49 53 55 51 53 52 51 49 49 50 51 51 49 52 56 60 66 70
Wind_Direction
131 132 136 138 142 143 144 144 141 139 137 138 137 137 135 127 114 106 101 74 72 67 63 57 44 35 30 31 38 37 35 36 37 37 41 45 46 43 48 41 31 40 33 18 13
141 144 145 144 145 148 148 146 139 136 137 150 145 139 130 120 111 91 67 42 30 17 8 4 357 355 354 353 357 360 3 1 1 10 20 26 28 29 35 32 31 12 20 21 9
157 158 154 152 148 147 154 147 141 141 153 162 156 148 141 131 112 85 53 41 30 16 2 352 341 332 325 332 333 333 338 341 336 330 342 351 3 3 343 358 11 23 342 351 13
153 155 158 156 152 145 145 145 146 150 163 182 185 178 176 182 46 300 323 337 336 336 333 336 339 334 329 325 317 321 326 330 326 325 316 321 328 338 341 344 328 325 342 317 313
146 150 153 154 148 143 139 142 150 158 187 223 240 242 246 264 285 295 304 313 313 315 318 322 320 319 324 328 327 323 317 315 317 318 315 307 307 310 321 324 329 332 318 306 309
145 147 149 146 145 144 143 145 156 190 229 263 266 263 266 278 283 287 297 303 308 311 316 319 320 320 321 322 326 328 324 316 315 315 311 307 301 296 303 311 306 313 319 323 311
128 135 139 142 144 142 142 144 182 243 273 281 283 283 278 279 287 294 300 306 311 315 316 318 320 324 325 323 319 317 317 318 320 318 312 306 301 301 293 297 304 308 304 310 310
121 129 135 141 142 143 147 186 276 286 285 283 285 284 286 285 291 298 305 310 315 316 317 320 322 325 324 323 320 315 312 315 313 314 314 313 307 301 292 290 295 299 302 305 307
132 142 156 166 171 185 247 279 281 282 278 282 289 291 290 292 296 299 307 312 313 313 316 319 322 323 321 320 316 311 308 313 317 317 314 312 310 310 304 295 292 293 298 301 303
163 184 207 223 236 250 259 269 273 276 279 283 285 290 293 296 298 303 305 308 310 311 313 315 318 321 319 317 316 316 316 314 315 316 313 308 309 308 306 299 293 294 296 298 301
232 235 241 248 252 257 261 265 271 276 282 283 286 290 293 297 298 300 303 305 308 307 309 311 315 315 314 314 314 313 313 313 315 313 310 305 306 304 303 301 299 298 300 301 301
252 253 256 261 264 267 270 272 274 277 280 285 290 292 295 297 299 299 302 304 305 306 308 311 312 312 311 311 311 310 310 310 311 309 309 306 305 304 301 298 299 297 300 302 300
263 265 265 266 269 271 273 275 277 280 282 287 290 294 297 298 299 300 300 303 303 307 307 309 309 309 309 310 310 309 309 309 309 309 307 308 306 305 295 296 296 295 301 301 302
266 270 273 276 277 277 278 279 282 284 287 290 293 293 297 299 299 300 301 302 304 306 306 307 306 306 307 307 308 309 308 308 308 308 309 311 309 310 302 299 295 299 301 303 306
265 271 275 277 279 281 283 283 284 286 291 292 296 295 298 298 298 302 301 303 304 305 304 305 304 305 304 305 307 309 307 308 308 307 309 310 307 307 302 302 304 302 305 308 312
271 274 276 278 279 280 280 282 284 285 288 291 292 295 295 296 296 299 300 302 301 302 303 303 303 303 303 304 305 306 305 305 306 304 307 307 305 308 307 309 311 306 307 314 315
275 278 280 282 282 282 281 282 283 285 289 290 292 293 293 295 296 298 299 300 301 302 300 301 296 298 299 299 301 301 303 304 305 307 307 307 307 315 306 306 310 307 310 315 313
276 280 282 282 281 281 282 283 284 288 288 290 292 293 295 294 294 297 299 300 302 300 302 302 303 300 297 296 298 298 301 303 302 304 303 302 305 308 302 304 305 305 307 313 310
275 278 279 280 280 280 281 282 283 284 285 286 289 290 291 290 296 296 298 299 304 301 298 297 300 300 300 300 300 298 299 298 299 300 298 301 303 302 301 303 301 303 308 311 306
274 275 275 277 278 279 280 280 283 285 287 288 289 289 291 294 295 297 300 304 303 300 297 297 296 297 295 297 297 297 299 299 297 296 298 299 299 299 298 296 295 298 304 305 298
271 272 274 276 277 278 279 280 282 282 285 287 289 290 293 296 298 301 303 304 306 302 298 296 296 297 296 297 295 296 297 297 295 294 294 295 297 296 295 294 293 297 305 301 294
271 272 274 274 276 277 279 280 281 285 286 287 289 291 293 296 298 300 301 302 304 301 298 296 294 296 296 296 296 297 297 299 298 297 293 291 290 293 285 290 292 299 299 293 288
271 271 272 275 276 277 279 279 282 283 284 286 288 290 291 294 294 297 302 300 298 297 299 297 295 295 295 292 294 297 297 293 287 288 291 287 292 293 295 288 293 298 292 291 295
270 269 270 272 275 277 278 281 282 282 283 285 286 288 289 291 293 297 298 297 297 297 293 295 298 299 295 294 291 291 291 289 286 286 292 290 296 293 284 291 296 291 289 293 302
270 270 270 272 271 272 275 279 281 282 282 283 284 286 288 290 292 293 293 292 292 291 291 291 293 292 293 293 294 293 291 293 293 293 290 296 294 291 289 295 293 292 291 292 295
271 271 270 272 271 272 276 279 279 278 280 283 284 285 288 290 290 290 290 291 292 293 292 292 292 290 288 290 288 286 287 293 294 293 290 294 288 287 291 293 293 290 287 293 297
275 277 276 273 274 275 278 279 280 279 279 279 282 284 286 290 291 292 291 292 292 292 292 289 290 291 292 290 287 288 293 291 291 291 293 289 291 291 297 293 289 285 290 293 298